Regional Weather Roundup
Issued by NWS

Home | Current Version | Previous Version | Text Only | Print | Product List | Glossary On
Versions: 1 2 3 4 5 6 7 8 9 10 11 12 13 14 15 16 17 18 19 20 21 22 23 24 25 26 27 28 29 30 31 32 33 34 35 36 37 38 39 40 41 42 43 44 45 46 47 48 49 50
000
ASUS44 KBMX 291910
RWRAL

ALABAMA REGIONAL WEATHER ROUNDUP
NATIONAL WEATHER SERVICE BIRMINGHAM AL
100 PM CST THU JAN 29 2015

NOTE: "FAIR" INDICATES FEW OR NO CLOUDS BELOW 12,000 FEET
WITH NO SIGNIFICANT WEATHER AND/OR OBSTRUCTIONS TO VISIBILITY.

THE REMARK "TC" DENOTES TEMPERATURE IN DEGREES CELSIUS.

ALZ001>011-014-016>018-020-292000-
NORTH ALABAMA

CITY           SKY/WX    TMP DP  RH WIND       PRES   REMARKS
MUSCLE SHOALS  PTSUNNY   63  42  46 SW13      30.07F
HUNTSVILLE     PTSUNNY   61  43  51 SW16      30.08F
DECATUR        PTSUNNY   61  44  53 SW15G22   30.08F
HALEYVILLE       N/A     61  45  55 SW15G22   30.11F
GADSDEN        PTSUNNY   59  34  38 S8        30.12F
$$

ALZ012-013-022-023-030>036-040>044-292000-
WEST CENTRAL ALABAMA

CITY           SKY/WX    TMP DP  RH WIND       PRES   REMARKS
TUSCALOOSA     MOSUNNY   66  46  48 S14       30.13F
$$

ALZ015-024>027-033>036-040>044-292000-
CENTRAL ALABAMA

CITY           SKY/WX    TMP DP  RH WIND       PRES   REMARKS
BIRMINGHAM     PTSUNNY   63  40  42 SW10      30.14F
MONTGOMERY     SUNNY     67  41  38 S12       30.19F
SHELBY CO ARPT MOSUNNY   65  40  39 S13G24    30.14F
MAXWELL AFB    SUNNY     66  42  40 S10       30.19F
GREENVILLE     FAIR      66  43  43 S10G20    30.19F
$$

ALZ019-021-028-029-037-038-045>048-292000-
EAST CENTRAL ALABAMA

CITY           SKY/WX    TMP DP  RH WIND       PRES   REMARKS
ANNISTON       MOSUNNY   62  32  32 SW13G22   30.14F
ALEXANDER CITY MOSUNNY   62  34  34 S7        30.18F
AUBURN         PTSUNNY   59  32  36 S16       30.22F
$$

ALZ051>064-292000-
SOUTHWEST ALABAMA

CITY           SKY/WX    TMP DP  RH WIND       PRES   REMARKS
MOBILE         PTSUNNY   68  51  54 S13       30.24F
BROOKLEY FIELD MOSUNNY   65  54  67 SE10      30.25F
EVERGREEN      SUNNY     67  48  50 SW14      30.21F
$$

ALZ049-050-065>069-292000-
SOUTHEAST ALABAMA

CITY           SKY/WX    TMP DP  RH WIND       PRES   REMARKS
DOTHAN         SUNNY     62  41  46 SW8       30.27F
OZARK          SUNNY     64  41  42 S10       30.24F
TROY           SUNNY     65  39  38 S12G23    30.22F
EUFAULA        FAIR      64  35  34 SE8       30.21F
$$


USA.gov is the U.S. government's official web portal to all federal, state and local government web resources and services.